VIR99 EGCC-EGKK

Flight info

Callsign VIR99
Flight time 0h 38m
Altitude 19000
Route LISTO L612 HON N859 KIDLI
Aircraft A339/H-SADE1E2E3GHIJ3J5M1P2RWXY/LB2D1

Departure

Time 2026-05-03 21:05
Airport Manchester Airport (EGCC)

Arrival

Time 2026-05-03 21:43
Airport London Gatwick Airport (EGKK)
Time Latitude Longitude Altitude Speed Heading
2026-05-03 20:54 53.35807 -2.27508 251 ft 0 kts 46°
2026-05-03 20:58 53.35804 -2.27513 251 ft 2 kts 46°
2026-05-03 20:59 53.35792 -2.27532 252 ft 2 kts 48°
2026-05-03 20:59 53.35765 -2.27575 253 ft 8 kts 37°
2026-05-03 20:59 53.35719 -2.27624 253 ft 8 kts 340°
2026-05-03 20:59 53.35713 -2.27621 253 ft 0 kts 334°
2026-05-03 21:00 53.35715 -2.27623 253 ft 0 kts 334°
2026-05-03 21:00 53.35728 -2.27649 253 ft 8 kts 304°
2026-05-03 21:00 53.35708 -2.27728 255 ft 11 kts 232°
2026-05-03 21:01 53.35644 -2.27860 256 ft 16 kts 231°
2026-05-03 21:01 53.35565 -2.28016 258 ft 19 kts 228°
2026-05-03 21:01 53.35471 -2.28137 259 ft 11 kts 185°
2026-05-03 21:01 53.35361 -2.28169 260 ft 21 kts 191°
2026-05-03 21:02 53.35235 -2.28293 261 ft 23 kts 232°
2026-05-03 21:02 53.35134 -2.28508 263 ft 24 kts 232°
2026-05-03 21:02 53.35021 -2.28732 266 ft 26 kts 228°
2026-05-03 21:02 53.34890 -2.28952 269 ft 27 kts 225°
2026-05-03 21:03 53.34764 -2.29200 272 ft 29 kts 231°
2026-05-03 21:03 53.34686 -2.29323 273 ft 0 kts 207°
2026-05-03 21:03 53.34620 -2.29336 275 ft 17 kts 173°
2026-05-03 21:04 53.34544 -2.29285 277 ft 16 kts 142°
2026-05-03 21:04 53.34569 -2.29158 274 ft 11 kts 54°
2026-05-03 21:04 53.34602 -2.29093 273 ft 0 kts 50°
2026-05-03 21:04 53.34631 -2.29032 273 ft 33 kts 51°
2026-05-03 21:05 53.34848 -2.28591 270 ft 110 kts 51°
2026-05-03 21:05 53.35480 -2.27239 318 ft 183 kts 54°
2026-05-03 21:05 53.36535 -2.24984 1730 ft 178 kts 50°
2026-05-03 21:05 53.37072 -2.23935 2453 ft 183 kts 50°
2026-05-03 21:06 53.37827 -2.22084 3045 ft 206 kts 69°
2026-05-03 21:06 53.37958 -2.19597 3640 ft 229 kts 98°
2026-05-03 21:06 53.37283 -2.17040 4096 ft 255 kts 126°
2026-05-03 21:06 53.35293 -2.14841 5029 ft 270 kts 163°
2026-05-03 21:07 53.33423 -2.14717 5889 ft 273 kts 191°
2026-05-03 21:07 53.32206 -2.15384 6500 ft 273 kts 202°
2026-05-03 21:07 53.30427 -2.16527 7295 ft 275 kts 199°
2026-05-03 21:07 53.28602 -2.17388 8122 ft 278 kts 193°
2026-05-03 21:08 53.26693 -2.17970 8960 ft 281 kts 189°
2026-05-03 21:08 53.24745 -2.18366 9828 ft 283 kts 187°
2026-05-03 21:08 53.22756 -2.18685 10393 ft 296 kts 186°
2026-05-03 21:08 53.20625 -2.19000 10653 ft 318 kts 186°
2026-05-03 21:09 53.18359 -2.19336 10989 ft 334 kts 186°
2026-05-03 21:09 53.16027 -2.19617 11683 ft 338 kts 182°
2026-05-03 21:09 53.13673 -2.19232 12387 ft 343 kts 169°
2026-05-03 21:09 53.11387 -2.18023 13066 ft 348 kts 158°
2026-05-03 21:10 53.09160 -2.16404 13776 ft 351 kts 158°
2026-05-03 21:10 53.06932 -2.14816 14399 ft 354 kts 158°
2026-05-03 21:10 53.04649 -2.13222 15020 ft 358 kts 158°
2026-05-03 21:10 53.02347 -2.11617 15664 ft 361 kts 158°
2026-05-03 21:11 53.00068 -2.10046 16276 ft 364 kts 159°
2026-05-03 21:11 52.97673 -2.08402 16989 ft 364 kts 159°
2026-05-03 21:11 52.95323 -2.06791 17666 ft 367 kts 159°
2026-05-03 21:11 52.92955 -2.05167 18264 ft 370 kts 159°
2026-05-03 21:12 52.90562 -2.03527 18728 ft 374 kts 159°
2026-05-03 21:12 52.88161 -2.01881 18890 ft 374 kts 159°
2026-05-03 21:12 52.85739 -2.00223 18942 ft 383 kts 159°
2026-05-03 21:12 52.83260 -1.98529 18941 ft 385 kts 159°
2026-05-03 21:13 52.80785 -1.96837 18941 ft 385 kts 159°
2026-05-03 21:13 52.78348 -1.95172 18940 ft 385 kts 159°
2026-05-03 21:13 52.75870 -1.93482 18941 ft 385 kts 159°
2026-05-03 21:13 52.73400 -1.91802 18937 ft 382 kts 159°
2026-05-03 21:14 52.70942 -1.90131 18943 ft 383 kts 159°
2026-05-03 21:14 52.68477 -1.88455 18941 ft 383 kts 159°
2026-05-03 21:14 52.66014 -1.86781 18940 ft 383 kts 159°
2026-05-03 21:14 52.63574 -1.85126 18937 ft 383 kts 159°
2026-05-03 21:15 52.61171 -1.83499 18937 ft 383 kts 159°
2026-05-03 21:15 52.58625 -1.81779 18938 ft 383 kts 159°
2026-05-03 21:15 52.56199 -1.80143 18938 ft 383 kts 159°
2026-05-03 21:15 52.53739 -1.78486 18938 ft 383 kts 159°
2026-05-03 21:16 52.51285 -1.76834 18937 ft 383 kts 159°
2026-05-03 21:16 52.48811 -1.75171 18938 ft 382 kts 159°
2026-05-03 21:16 52.46347 -1.73517 18938 ft 383 kts 159°
2026-05-03 21:16 52.43884 -1.71866 18939 ft 382 kts 159°
2026-05-03 21:17 52.41424 -1.70219 18939 ft 382 kts 159°
2026-05-03 21:17 52.38963 -1.68573 18938 ft 383 kts 159°
2026-05-03 21:17 52.36494 -1.66924 18937 ft 382 kts 159°
2026-05-03 21:17 52.34028 -1.65483 18874 ft 381 kts 164°
2026-05-03 21:18 52.31501 -1.64180 18649 ft 381 kts 164°
2026-05-03 21:18 52.29002 -1.62886 18410 ft 379 kts 164°
2026-05-03 21:18 52.26476 -1.61573 18159 ft 377 kts 164°
2026-05-03 21:18 52.23980 -1.60273 17885 ft 375 kts 164°
2026-05-03 21:19 52.21532 -1.59000 17621 ft 374 kts 164°
2026-05-03 21:19 52.19019 -1.57693 17350 ft 373 kts 164°
2026-05-03 21:19 52.16547 -1.56410 17083 ft 372 kts 164°
2026-05-03 21:19 52.14085 -1.55132 16819 ft 371 kts 164°
2026-05-03 21:20 52.11666 -1.53878 16561 ft 370 kts 164°
2026-05-03 21:20 52.09225 -1.52614 16302 ft 368 kts 164°
2026-05-03 21:20 52.06782 -1.51352 16034 ft 367 kts 164°
2026-05-03 21:20 52.04350 -1.50097 15777 ft 366 kts 164°
2026-05-03 21:21 52.01931 -1.48849 15514 ft 364 kts 164°
2026-05-03 21:21 51.99521 -1.47607 15261 ft 363 kts 164°
2026-05-03 21:21 51.97114 -1.46368 15004 ft 362 kts 164°
2026-05-03 21:21 51.94725 -1.45137 14920 ft 361 kts 164°
2026-05-03 21:22 51.92361 -1.43924 14912 ft 361 kts 164°
2026-05-03 21:22 51.89965 -1.42696 14911 ft 361 kts 164°
2026-05-03 21:22 51.87573 -1.41471 14846 ft 359 kts 164°
2026-05-03 21:22 51.85205 -1.40258 14381 ft 357 kts 164°
2026-05-03 21:23 51.82848 -1.39054 13776 ft 353 kts 164°
2026-05-03 21:23 51.80513 -1.37862 12920 ft 350 kts 164°
2026-05-03 21:23 51.78218 -1.36647 12098 ft 345 kts 161°
2026-05-03 21:23 51.76048 -1.35027 11266 ft 343 kts 153°
2026-05-03 21:24 51.74034 -1.32977 10469 ft 340 kts 148°
2026-05-03 21:24 51.72036 -1.30847 10081 ft 357 kts 148°
2026-05-03 21:24 51.69934 -1.28631 9941 ft 362 kts 148°
2026-05-03 21:24 51.67849 -1.26448 9912 ft 362 kts 148°
2026-05-03 21:25 51.65732 -1.24241 9911 ft 363 kts 148°
2026-05-03 21:25 51.63617 -1.22042 9913 ft 363 kts 148°
2026-05-03 21:25 51.61497 -1.19843 9910 ft 362 kts 148°
2026-05-03 21:25 51.59376 -1.17644 9908 ft 363 kts 148°
2026-05-03 21:26 51.57256 -1.15449 9912 ft 362 kts 148°
2026-05-03 21:26 51.55134 -1.13255 9912 ft 363 kts 148°
2026-05-03 21:26 51.53010 -1.11061 9912 ft 363 kts 148°
2026-05-03 21:26 51.50889 -1.08872 9909 ft 363 kts 148°
2026-05-03 21:27 51.48807 -1.06724 9710 ft 359 kts 148°
2026-05-03 21:27 51.46712 -1.04567 9088 ft 356 kts 148°
2026-05-03 21:27 51.44643 -1.02439 8252 ft 351 kts 148°
2026-05-03 21:27 51.42602 -1.00342 7301 ft 347 kts 148°
2026-05-03 21:28 51.40572 -0.98293 6366 ft 342 kts 148°
2026-05-03 21:28 51.38565 -0.96286 5511 ft 337 kts 148°
2026-05-03 21:28 51.36562 -0.94294 5110 ft 342 kts 148°
2026-05-03 21:28 51.34546 -0.92297 4956 ft 340 kts 148°
2026-05-03 21:29 51.32565 -0.90341 4941 ft 340 kts 149°
2026-05-03 21:29 51.30573 -0.88361 4936 ft 328 kts 148°
2026-05-03 21:29 51.28729 -0.86525 4933 ft 296 kts 148°
2026-05-03 21:29 51.27076 -0.84873 4936 ft 266 kts 148°
2026-05-03 21:30 51.25702 -0.82895 4936 ft 269 kts 131°
2026-05-03 21:30 51.24487 -0.80645 4938 ft 267 kts 131°
2026-05-03 21:30 51.23271 -0.78404 4938 ft 267 kts 131°
2026-05-03 21:30 51.22057 -0.76166 4938 ft 267 kts 131°
2026-05-03 21:31 51.20857 -0.73957 4945 ft 267 kts 131°
2026-05-03 21:31 51.19621 -0.71750 4938 ft 267 kts 134°
2026-05-03 21:31 51.18314 -0.69653 4939 ft 266 kts 136°
2026-05-03 21:31 51.17005 -0.67560 4936 ft 267 kts 136°
2026-05-03 21:32 51.15694 -0.65466 4934 ft 267 kts 136°
2026-05-03 21:32 51.14388 -0.63382 4928 ft 267 kts 136°
2026-05-03 21:32 51.13071 -0.61285 4933 ft 267 kts 136°
2026-05-03 21:32 51.11757 -0.59193 4926 ft 267 kts 136°
2026-05-03 21:33 51.10383 -0.57006 4929 ft 296 kts 136°
2026-05-03 21:33 51.08889 -0.54635 4925 ft 306 kts 136°
2026-05-03 21:33 51.07399 -0.52276 4926 ft 307 kts 136°
2026-05-03 21:33 51.06087 -0.49612 4925 ft 308 kts 118°
2026-05-03 21:34 51.05514 -0.46757 4932 ft 310 kts 101°
2026-05-03 21:34 51.05250 -0.43358 4931 ft 310 kts 91°
2026-05-03 21:34 51.05519 -0.39956 4935 ft 311 kts 81°
2026-05-03 21:34 51.05886 -0.36576 4907 ft 309 kts 81°
2026-05-03 21:35 51.06249 -0.33222 4496 ft 307 kts 81°
2026-05-03 21:35 51.06525 -0.29890 4127 ft 305 kts 90°
2026-05-03 21:35 51.06251 -0.26588 4028 ft 306 kts 101°
2026-05-03 21:35 51.05859 -0.23266 4000 ft 306 kts 101°
2026-05-03 21:36 51.05457 -0.19944 4002 ft 311 kts 101°
2026-05-03 21:36 51.05034 -0.16434 4000 ft 330 kts 101°
2026-05-03 21:36 51.04607 -0.12832 3999 ft 332 kts 101°
2026-05-03 21:36 51.04454 -0.09192 3998 ft 327 kts 84°
2026-05-03 21:37 51.05088 -0.05915 3999 ft 296 kts 62°
2026-05-03 21:37 51.06162 -0.03301 3993 ft 291 kts 49°
2026-05-03 21:37 51.07625 -0.01078 3997 ft 284 kts 43°
2026-05-03 21:37 51.09015 0.00980 3678 ft 264 kts 43°
2026-05-03 21:38 51.10340 0.02953 3208 ft 264 kts 43°
2026-05-03 21:38 51.11661 0.04923 3029 ft 249 kts 43°
2026-05-03 21:38 51.12850 0.06700 3025 ft 221 kts 43°
2026-05-03 21:38 51.14078 0.07880 3049 ft 196 kts 19°
2026-05-03 21:39 51.15325 0.08366 3019 ft 174 kts
2026-05-03 21:39 51.16387 0.07855 2950 ft 159 kts 316°
2026-05-03 21:39 51.16837 0.06345 2914 ft 154 kts 276°
2026-05-03 21:39 51.16904 0.04652 2830 ft 153 kts 269°
2026-05-03 21:40 51.16907 0.02954 2719 ft 152 kts 268°
2026-05-03 21:40 51.16877 0.01276 2557 ft 154 kts 266°
2026-05-03 21:40 51.16817 -0.00389 2363 ft 150 kts 266°
2026-05-03 21:40 51.16791 -0.02091 2140 ft 152 kts 270°
2026-05-03 21:41 51.16787 -0.03775 1936 ft 152 kts 268°
2026-05-03 21:41 51.16702 -0.05438 1619 ft 150 kts 258°
2026-05-03 21:41 51.16443 -0.07039 1383 ft 153 kts 255°
2026-05-03 21:41 51.16205 -0.08654 1173 ft 148 kts 258°
2026-05-03 21:42 51.16008 -0.10242 1279 ft 152 kts 258°
2026-05-03 21:42 51.15787 -0.11909 1042 ft 150 kts 258°
2026-05-03 21:42 51.15568 -0.13529 776 ft 147 kts 255°
2026-05-03 21:42 51.15346 -0.15134 543 ft 152 kts 259°
2026-05-03 21:43 51.15132 -0.16745 350 ft 143 kts 257°
2026-05-03 21:43 51.14928 -0.18215 220 ft 123 kts 257°
2026-05-03 21:43 51.14808 -0.19040 220 ft 33 kts 259°
2026-05-03 21:43 51.14766 -0.19427 219 ft 35 kts 259°
2026-05-03 21:44 51.14781 -0.19807 212 ft 35 kts 284°
2026-05-03 21:44 51.14857 -0.20027 215 ft 10 kts 356°
2026-05-03 21:44 51.14876 -0.19987 216 ft 10 kts 66°
2026-05-03 21:44 51.14895 -0.19739 219 ft 30 kts 79°
2026-05-03 21:45 51.14938 -0.19397 218 ft 32 kts 78°
2026-05-03 21:45 51.14987 -0.19047 215 ft 33 kts 78°
2026-05-03 21:45 51.15044 -0.18683 217 ft 34 kts 76°
2026-05-03 21:45 51.15098 -0.18313 214 ft 34 kts 77°
2026-05-03 21:46 51.15233 -0.18224 213 ft 20 kts 346°
2026-05-03 21:46 51.15375 -0.18280 217 ft 22 kts 347°
2026-05-03 21:46 51.15529 -0.18322 219 ft 23 kts 347°
2026-05-03 21:46 51.15658 -0.18306 216 ft 14 kts 49°
2026-05-03 21:47 51.15669 -0.18175 216 ft 13 kts 73°
2026-05-03 21:47 51.15708 -0.18047 219 ft 6 kts 14°
2026-05-03 21:47 51.15746 -0.18053 213 ft 12 kts 357°
2026-05-03 21:47 51.15843 -0.18080 217 ft 16 kts 349°
2026-05-03 21:48 51.15958 -0.18119 218 ft 18 kts 345°
2026-05-03 21:48 51.16087 -0.18169 218 ft 18 kts 349°
2026-05-03 21:48 51.16106 -0.18175 211 ft 3 kts 349°
2026-05-03 21:48 51.16195 -0.18204 217 ft 15 kts 347°
2026-05-03 21:49 51.16245 -0.18134 220 ft 8 kts 84°
2026-05-03 21:49 51.16246 -0.18091 216 ft 8 kts 80°
2026-05-03 21:49 51.16248 -0.18068 214 ft 1 kts 79°
2026-05-03 21:49 51.16249 -0.18063 213 ft 0 kts 79°